sat.trackr.live / text

‹ back to catalog

YUNHAI-3 02

NORAD 59343 · 2024-058A

PAYLOAD ACTIVE UNKNOWN

§ Identity

Operator
Country
PRC
Launch date
2024-03-26
Launch site
TAISC
Launch vehicle
Mass (kg)
RCS (m²)

External: N2YO · Heavens-Above · Gunter

§ Orbital elements

Epoch: 2026-05-25T04:20:17.390976Z

Period
101.89 min
Inclination
98.8199°
Eccentricity
0.0002036
Mean motion
14.13324981 rev/d
Perigee alt
846.5 km
Apogee alt
849.5 km
Semi-major
7,226.2 km
B*
2.2990e-5
RAAN
153.3565°
Arg perigee
87.3506°
Mean anomaly
272.7899°
Rev number
11,149

§ Raw data

YUNHAI-3 021 59343U 24058A   26145.18075684 -.00000001  00000+0  22990-4 0  99972 59343  98.8199 153.3565 0002036  87.3506 272.7899 14.13324981111494

JSON: /api/v1/satellites/59343 · /tle

For live sub-satellite position, see the globe view (requires WebGL).

§ Visibility from observer

Set your observer location to see the next 7 days of passes ≥ 10°. The values pass through the URL so the page stays shareable.

No JS? Fill the form by hand. The geolocation button needs JavaScript.